Weather in Selezyan

Russia / Chelyabinsk Oblast     54°54′34″N   61°49′26″E
temp.,
°C
wind,
m/s
gust,
m/s
humid.,
%
clouds,
%
prec.,
mm/h
press.,
hPa
HPBL,
m
12 may, wed
wed1223:00+16w223472 0.0 102711
02:00+13w22390 0.0 102815
05:00+12w33435 0.0 102820
08:00+17nw34375 0.0 1028246
11:00+22nnw44395 0.0 10281062
14:00+25nnw453742 0.0 10272484
17:00+26nw353151 0.0 10262512
20:00+21ene365065 0.0 1026105
13 may, thu
thu1323:00+17ene11464 0.0 102711
02:00+15n1153100 0.0 102710
05:00+14nw225692 0.0 102815
08:00+19nw23468 0.0 1028268
11:00+23nw34338 0.0 10271448
14:00+26nnw453160 0.0 10261875
17:00+27n452853 0.0 10252231
20:00+23nne223846 0.0 102518
14 may, fri
fri1423:00+18e11465 0.0 102611
02:00+17wsw11495 0.0 102711
05:00+16n11545 0.0 102811
08:00+21ssw11425 0.0 1028191
11:00+26ssw33310 0.0 10271216
14:00+28wsw34280 0.0 10262601
17:00+29wsw45265 0.0 10253048
20:00+25sw333935 0.0 102428
15 may, sat
sat1523:00+24wsw223886 0.0 102421
02:00+19nw46505 0.0 102490
05:00+17nnw34565 0.0 102543
08:00+22nw23415 0.0 1025279
11:00+27w35295 0.0 10241540
14:00+29w45245 0.0 10222361
17:00+29wsw352548 0.0 10212682
20:00+25wnw33385 0.0 102037
16 may, sun
sun1623:00+21wnw33462 0.0 102120
02:00+19w33520 0.0 102136
05:00+17wnw33564 0.0 102142
08:00+23wnw35436 0.0 1021316
11:00+28wnw342919 0.0 10211343
14:00+30w34245 0.0 10202317
17:00+30w33225 0.0 10192965
20:00+26ssw333311 0.0 101822